Home   Weather   Suez   Past weeks
Flag for Egypt

Past Weather in Suez, Egypt — Yesterday and Last 2 Weeks

Now
90 °F

Sunny.


Feels Like: 86 °F
Forecast: 91 / 69 °F
Wind: 7 mph from Northeast

Location: Cairo Airport

Current Time: Oct 21, 2019 at 1:12:26 pm

Latest Report: Oct 21, 2019 at 12:00 pm


Visibility: 10 mi

Pressure: 29.95 "Hg

Humidity: 21%

Dew Point: 45 °F

Location of SuezLocation

Past Weather in Suez — Graph

°F

Suez Temperature Yesterday

Maximum temperature yesterday: 93 °F (at 12:00 pm)
Minimum temperature yesterday: 72 °F (at 5:00 am)
Average temperature yesterday: 82 °F

High & Low Weather Summary for the Past Weeks

 TemperatureHumidityPressure
High93 °F (Oct 9, 1:00 pm)94% (Oct 12, 7:30 am)30.07 "Hg (Oct 12, 7:30 am)
Low70 °F (Oct 11, 5:30 am)19% (Oct 20, 12:00 pm)29.86 "Hg (Oct 6, 2:30 pm)
Average81 °F59%29.98 "Hg
* Reported Oct 6 11:00 am — Oct 21 11:30 am, Suez. Weather by CustomWeather, © 2019

Note: Actual official high and low records may vary slightly from our data, if they occured in-between our weather recording intervals... More about our weather records

Advertising

Suez Weather History for the Previous 24 Hours

Scroll right to see more
 ConditionsComfort  
Time TempWeatherWind HumidityBarometerVisibility
11:30 am
Mon, Oct 21
90 °FSunny.6 mph24%29.98 "Hg10 mi
11:00 am90 °FSunny.6 mph24%29.98 "Hg10 mi
10:30 am88 °FClear.6 mph25%29.98 "Hg4 mi
10:00 am86 °FClear.5 mph29%29.98 "Hg4 mi
9:30 am84 °FSunny.6 mph33%29.98 "Hg10 mi
9:00 am82 °FSunny.No wind35%29.98 "Hg10 mi
8:30 am84 °FSunny.No wind31%29.98 "Hg10 mi
8:00 am79 °FSunny.No wind39%29.98 "Hg10 mi
7:30 am77 °FSunny.2 mph42%29.98 "Hg10 mi
7:00 am75 °FSunny.3 mph41%29.98 "Hg10 mi
6:30 am73 °FSunny.No wind44%29.95 "Hg10 mi
6:00 am73 °FSunny.No wind44%29.95 "Hg10 mi
5:30 am75 °FClear.5 mph41%29.95 "Hg10 mi
5:00 am75 °FClear.5 mph41%29.95 "Hg10 mi
4:30 am75 °FClear.5 mph41%29.95 "Hg10 mi
4:00 am77 °FClear.3 mph36%29.95 "Hg10 mi
3:30 am77 °FClear.7 mph36%29.95 "Hg10 mi
3:00 am77 °FClear.7 mph36%29.95 "Hg10 mi
2:00 am77 °FClear.10 mph39%29.95 "Hg10 mi
1:30 am79 °FClear.7 mph39%29.95 "Hg10 mi
1:00 am79 °FClear.7 mph39%29.95 "Hg10 mi
12:30 am79 °FClear.8 mph39%29.98 "Hg10 mi
12:00 am79 °FClear.12 mph39%29.98 "Hg10 mi
11:30 pm
Sun, Oct 20
79 °FClear.10 mph42%29.98 "Hg10 mi
11:00 pm79 °FClear.10 mph45%30.01 "Hg10 mi
10:00 pm81 °FClear.10 mph45%30.01 "Hg10 mi
9:30 pm81 °FClear.10 mph42%30.01 "Hg10 mi
9:00 pm81 °FClear.12 mph45%30.01 "Hg10 mi
8:30 pm82 °FClear.14 mph45%30.01 "Hg10 mi
8:00 pm82 °FClear.13 mph48%30.01 "Hg10 mi
7:30 pm82 °FClear.14 mph45%30.01 "Hg10 mi
7:00 pm84 °FClear.13 mph43%30.01 "Hg10 mi
6:30 pm86 °FClear.15 mph38%30.01 "Hg10 mi
6:00 pm88 °FClear.10 mph27%29.98 "Hg10 mi
5:30 pm88 °FClear.10 mph27%29.98 "Hg10 mi
5:00 pm90 °FSunny.12 mph26%29.98 "Hg10 mi
4:30 pm91 °FSunny.13 mph21%29.98 "Hg10 mi
4:00 pm93 °FSunny.12 mph21%29.98 "Hg10 mi
3:30 pm93 °FSunny.10 mph20%29.98 "Hg10 mi
3:00 pm93 °FSunny.8 mph19%29.98 "Hg10 mi
2:30 pm93 °FSunny.8 mph19%29.98 "Hg10 mi
2:00 pm93 °FSunny.9 mph20%29.98 "Hg10 mi
1:30 pm93 °FSunny.3 mph20%30.01 "Hg10 mi
1:00 pm93 °FSunny.7 mph19%30.01 "Hg10 mi
Weather by CustomWeather, © 2019

See weather overview